This demonstration page uses our WeatherBlox Daily Observations layout. Learn more.

Left ArrowRight Arrow

Hourly Observations for January 2, 2018

Temp ( °F °C ) Dew Point ( °F °C ) Humidity (%) Winds ( mph kmh ) Pressure ( in mb ) Visibility ( mi km ) Precip ( " mm )
12:56 am 00:56 Clear -7 -21.7 -10 -23.3 87 87 S 3 6 30.76 1042 10 16 0.00 0.00
1:56 am 01:56 Clear -7 -21.7 -10 -23.3 87 87 Calm 30.76 1042 10 16 0.00 0.00
2:56 am 02:56 Clear -7 -21.7 -11 -23.9 82 82 SSW 5 7 30.75 1041 10 16 0.00 0.00
3:56 am 03:56 Clear -6 -21.1 -10 -23.3 83 83 SSW 7 11 30.74 1041 10 16 0.00 0.00
4:56 am 04:56 Clear -6 -21.1 -10 -23.3 83 83 SW 7 11 30.72 1040 10 16 0.00 0.00
5:56 am 05:56 Clear -6 -21.1 -10 -23.3 83 83 SW 6 9 30.71 1040 10 16 0.00 0.00
6:56 am 06:56 Clear -6 -21.1 -10 -23.3 83 83 SW 7 11 30.68 1039 10 16 0.00 0.00
7:56 am 07:56 Clear -5 -20.6 -9 -22.8 83 83 SSW 7 11 30.68 1039 10 16 0.00 0.00
8:56 am 08:56 Sunny -1 -18.3 -7 -21.7 75 75 SW 14 22 30.66 1038 10 16 0.00 0.00
9:56 am 09:56 Sunny 4 -15.6 -4 -20 69 69 WSW 13 20 30.65 1038 10 16 0.00 0.00
10:56 am 10:56 Sunny 8 -13.3 -1 -18.3 66 66 WSW 14 22 30.62 1037 10 16 0.00 0.00
11:56 am 11:56 Sunny 13 -10.6 1 -17.2 59 59 WSW 16 26 30.56 1035 10 16 0.00 0.00
12:56 pm 12:56 Sunny 14 -10 2 -16.7 58 58 WSW 17 28 30.50 1033 10 16 0.00 0.00
1:56 pm 13:56 Sunny 17 -8.3 5 -15 59 59 WSW 15 24 30.46 1032 10 16 0.00 0.00
2:56 pm 14:56 Sunny 18 -7.8 7 -13.9 62 62 SW 13 20 30.43 1031 10 16 0.00 0.00
3:56 pm 15:56 Sunny 19 -7.2 9 -12.8 65 65 WSW 13 20 30.41 1030 10 16 0.00 0.00
4:56 pm 16:56 Sunny 18 -7.8 10 -12.2 71 71 WSW 14 22 30.37 1029 10 16 0.00 0.00
5:56 pm 17:56 Clear 19 -7.2 12 -11.1 74 74 WSW 13 20 30.35 1028 10 16 0.00 0.00
6:56 pm 18:56 Cloudy 21 -6.1 12 -11.1 68 68 W 15 24 30.35 1028 10 16 0.00 0.00
7:56 pm 19:56 Mostly Clear 22 -5.6 13 -10.6 68 68 W 13 20 30.33 1027 10 16 0.00 0.00
8:56 pm 20:56 Clear 22 -5.6 13 -10.6 68 68 WNW 9 15 30.32 1027 10 16 0.00 0.00
9:56 pm 21:56 Clear 20 -6.7 13 -10.6 74 74 WNW 13 20 30.32 1027 10 16 0.00 0.00
10:56 pm 22:56 Clear 19 -7.2 12 -11.1 74 74 WNW 13 20 30.32 1027 10 16 0.00 0.00
11:56 pm 23:56 Clear 22 -5.6 14 -10 71 71 NW 12 19 30.31 1027 10 16 0.00 0.00

Powered by AerisWeather